LGPZLGKF

Guest
Details From LGPZ - AKTIO
To LGKF - Kefallinia
Flight Number -
Tags generated
Created
Modified
Stats Distance 51 nm / 94 km
Max Altitude 0 ft / 0 m
Waypoints 3
Social Downloads 1
Likes 0
Share VATSIM

Download

Looking for another format? Having issues loading an existing format? Contact us
Advertisement - Login to hide

Notes

Basic altitude profile: - Ascent Rate: 2500ft/min - Ascent Speed: 250kts - Cruise Altitude: 35000ft - Cruise Speed: 420kts - Descent Rate: 1500ft/min - Descent Speed: 250kts Options: - Use NATs: yes - Use PACOTS: yes - Use low airways: yes - Use high airways: yes

Route

LGPZ KFN LGKF

ID Type Via Altitude Latitude Longitude Leg Dist Tot Dist Heading (true) Name
O LGPZ APT - 0 ft / 0 m 38.92547˚ 20.76531˚ - 0 nm - AKTIO
KFN VOR - 0 ft / 0 m 38.11306˚ 20.50472˚ 50 nm 50 nm 194° / 194° KEFALLINIA VOR-DME
O LGKF APT - 0 ft / 0 m 38.12007˚ 20.50048˚ 0 nm 50 nm 335° / 335° Kefallinia

Altitude Profile

Advertisement - Login to hide

LGPZ

Details ICAO LGPZ (PVK)
Name AKTIO
Region Greece
Timezone Europe/Athens (UTC+3.0)
Stats Elevation 11 ft / 3 m (AMSL)
Location 38.925465° 20.765311°
Runways 1
Magnetic Variation 4.203° E

METAR

LGPZ 241520Z 26011KT 9999 SCT020 24/17 Q1014

Decode

TAF

TAF LGPZ 241100Z 2412/2512 28010KT 9999 SCT015 SCT070 PROB40 TEMPO 2412/2418 5000 RA SCT010 BKN020 BKN070 PROB30 TEMPO 2412/2416 4000 TSRA FEW018CB BKN020 OVC070 BECMG 2419/2421 VRB03KT PROB30 2500/2506 3000 BR SCT008

Decode

Departure Runways

ID Width Length Bearing (true) Bearing (mag) Surface Threshold Offset Overrun Length
07L 148 ft / 45 m 9,404 ft / 2,866 m 67.79° 63.59° Asphalt 0 ft / 0 m 80 ft / 24 m
25R 148 ft / 45 m 9,404 ft / 2,866 m 247.81° 243.61° Asphalt 492 ft / 150 m 380 ft / 116 m

LGKF

Details ICAO LGKF (EFL)
Name Kefallinia
Region Greece
Timezone Europe/Athens (UTC+3.0)
Stats Elevation 59 ft / 18 m (AMSL)
Location 38.120069° 20.500480°
Runways 1
Magnetic Variation 4.095° E

METAR

LGKF 241450Z 32016KT 9999 FEW016 24/17 Q1013

Decode

TAF

Not found

Destination Runways

ID Width Length Bearing (true) Bearing (mag) Surface Threshold Offset Overrun Length
14 148 ft / 45 m 7,979 ft / 2,432 m 146.39° 142.29° Asphalt 0 ft / 0 m 180 ft / 55 m
32 148 ft / 45 m 7,979 ft / 2,432 m 326.40° 322.30° Asphalt 912 ft / 278 m 100 ft / 30 m